{"data":{"norad_id":66502,"intl_designator":"2025-263T","name":"STARLINK-35922","alt_names":[],"object_type":"PAYLOAD","status":"ACTIVE","operator":null,"country":"US","launch_date":"2025-11-15","launch_site_code":"AFETR","launch_vehicle":null,"mission":null,"orbit_class":"UNKNOWN","rcs_meters":null,"size_class":null,"mass_kg":null,"dimensions":null,"purposes":["comms"],"wikipedia_slug":null,"has_3d_model":false,"image_url":null,"decayed_at":null,"tle_current":{"epoch":"2026-09-20T06:25:12.962496Z","epoch_age_seconds":109765,"freshness":"FRESH","line1":"1 66502U 25263T   26263.26751114  .00010225  00000+0  38048-3 0  9998","line2":"2 66502  43.0024 332.1150 0001525 262.7886  97.2793 15.27587888 48650","mean_motion":15.27587888,"eccentricity":0.0001525,"inclination_deg":43.0024,"raan_deg":332.115,"arg_perigee_deg":262.7886,"mean_anomaly_deg":97.2793,"bstar":0.00038048,"rev_number":4865,"period_min":94.266261948785,"perigee_km":481.97914935391,"apogee_km":484.07180390928,"semimajor_km":6861.1624766316,"source":"CELESTRAK","updated_at":"2026-09-21T09:00:35.922486Z"}}}